Location: Mohawk View
(42.7837°N, 73.7885°W)
Time: 14:56:55
(UTC+00:00)

ATLAS 3B R/B - Pass Details

Date: 17 June 2021
Orbit: 1003 x 1191 km, 63.8° (Epoch: 21 July)

Event Time Altitude Azimuth Distance (km) Brightness Sun altitude
Exits shadow 02:39:13 10° 196° (SSW) 2,759 4.5 -16.7°
Maximum altitude 02:45:31 58° 119° (ESE) 1,175 2.6 -17.3°
Drops below altitude 10° 02:52:04 10° 42° (NE) 2,859 5.2 -17.9°
Sets 02:54:47 0° 39° (NE) 3,841 5.9 -18.2°
